This is the latest recevied weather packets stored in our database for station/object KD4WXI. If no packets are shown the sender has not sent any weather packets the latest 10 day(s).
| Time | Temp. | Humidity | Pressure | Rain* | Wind** | Luminosity | Snow |
|---|---|---|---|---|---|---|---|
| 1778014704 | 25° C | 39% | 1014.2 hPa | 0 mm | - | 69 W/m² | - |
| 1778014402 | 25° C | 40% | 1014 hPa | 0 mm | - | 71 W/m² | - |
| 1778014098 | 25.56° C | 38% | 1014 hPa | 0 mm | - | 67 W/m² | - |
| 1778013797 | 25° C | 39% | 1014.2 hPa | 0 mm | - | 69 W/m² | - |
| 1778013494 | 25° C | 40% | 1014.1 hPa | 0 mm | - | 65 W/m² | - |
| 1778013190 | 25.56° C | 39% | 1014.5 hPa | 0 mm | - | 73 W/m² | - |
| 1778012886 | 25.56° C | 37% | 1014.1 hPa | 0 mm | - | 110 W/m² | - |
| 1778012583 | 26.11° C | 39% | 1014.3 hPa | 0 mm | - | 108 W/m² | - |
| 1778012279 | 25.56° C | 38% | 1014.5 hPa | 0 mm | - | 432 W/m² | - |
| 1778011977 | 25.56° C | 39% | 1014.5 hPa | 0 mm | - | 499 W/m² | - |
| 1778011675 | 26.11° C | 38% | 1014.6 hPa | 0 mm | - | 355 W/m² | - |
| 1778011372 | 26.11° C | 36% | 1014.8 hPa | 0 mm | - | 522 W/m² | - |
| 1778011067 | 26.67° C | 36% | 1014.9 hPa | 0 mm | - | 582 W/m² | - |
| 1778010765 | 26.67° C | 38% | 1014.7 hPa | 0 mm | - | 162 W/m² | - |
| 1778010462 | 26.67° C | 38% | 1014.6 hPa | 0 mm | - | 521 W/m² | - |
| 1778010158 | 26.67° C | 37% | 1014.6 hPa | 0 mm | - | 613 W/m² | - |
| 1778009854 | 26.67° C | 37% | 1014.8 hPa | 0 mm | - | 635 W/m² | - |
| 1778009552 | 26.67° C | 37% | 1015 hPa | 0 mm | - | 671 W/m² | - |
| 1778009250 | 26.67° C | 37% | 1014.8 hPa | 0 mm | - | 551 W/m² | - |
| 1778008948 | 26.67° C | 38% | 1015.3 hPa | 0 mm | - | 532 W/m² | - |
| 1778008645 | 26.67° C | 36% | 1015.3 hPa | 0 mm | - | 460 W/m² | - |
| 1778008344 | 25.56° C | 38% | 1015.6 hPa | 0 mm | - | 676 W/m² | - |
| 1778008040 | 26.11° C | 37% | 1015.7 hPa | 0 mm | - | 681 W/m² | - |
| 1778007739 | 26.67° C | 35% | 1015.7 hPa | 0 mm | - | 699 W/m² | - |
| 1778007436 | 26.67° C | 34% | 1015.7 hPa | 0 mm | - | 696 W/m² | - |
* Rain latest hour (hover to see other rain measurements)
** Current wind speed in m/s (hover to see current wind gust speed)